This is the latest recevied weather packets stored in our database for station/object K7CTM. If no packets are shown the sender has not sent any weather packets the latest 10 day(s).
| Time | Temp. | Humidity | Pressure | Rain* | Wind** | Luminosity | Snow |
|---|---|---|---|---|---|---|---|
| 1777648453 | 10° C | 45% | 1030.3 hPa | 0 mm | - | 444 W/m² | - |
| 1777648149 | 10° C | 45% | 1030.4 hPa | 0 mm | - | 428 W/m² | - |
| 1777647845 | 9.44° C | 47% | 1030.5 hPa | 0 mm | - | 399 W/m² | - |
| 1777647541 | 8.89° C | 49% | 1030.4 hPa | 0 mm | - | 394 W/m² | - |
| 1777647238 | 8.89° C | 49% | 1030.5 hPa | 0 mm | - | 379 W/m² | - |
| 1777646936 | 7.78° C | 51% | 1030.5 hPa | 0 mm | - | 361 W/m² | - |
| 1777646631 | 7.22° C | 52% | 1030.5 hPa | 0 mm | - | 344 W/m² | - |
| 1777646327 | 6.67° C | 51% | 1030.5 hPa | 0 mm | - | 326 W/m² | - |
| 1777646024 | 6.67° C | 52% | 1030.3 hPa | 0 mm | - | 308 W/m² | - |
| 1777645721 | 6.67° C | 53% | 1030.4 hPa | 0 mm | - | 292 W/m² | - |
| 1777645418 | 6.67° C | 55% | 1030.5 hPa | 0 mm | - | 275 W/m² | - |
| 1777645113 | 6.11° C | 54% | 1030.5 hPa | 0 mm | - | 259 W/m² | - |
| 1777644810 | 6.11° C | 54% | 1030.5 hPa | 0 mm | - | 244 W/m² | - |
| 1777644508 | 5.56° C | 56% | 1030.6 hPa | 0 mm | - | 229 W/m² | - |
| 1777644204 | 5.56° C | 56% | 1030.6 hPa | 0 mm | - | 215 W/m² | - |
| 1777643900 | 5° C | 58% | 1030.4 hPa | 0 mm | - | 197 W/m² | - |
| 1777643598 | 4.44° C | 60% | 1030.5 hPa | 0 mm | - | 173 W/m² | - |
| 1777643295 | 3.89° C | 61% | 1030.6 hPa | 0 mm | - | 166 W/m² | - |
| 1777642991 | 3.89° C | 60% | 1030.5 hPa | 0 mm | - | 154 W/m² | - |
| 1777642688 | 3.89° C | 62% | 1030.5 hPa | 0 mm | - | 141 W/m² | - |
| 1777642385 | 3.89° C | 62% | 1030.5 hPa | 0 mm | - | 126 W/m² | - |
| 1777642081 | 3.33° C | 63% | 1030.3 hPa | 0 mm | - | 116 W/m² | - |
| 1777641778 | 3.33° C | 65% | 1030.3 hPa | 0 mm | - | 101 W/m² | - |
| 1777641478 | 2.78° C | 66% | 1030.4 hPa | 0 mm | - | 89 W/m² | - |
| 1777641173 | 2.78° C | 67% | 1030.2 hPa | 0 mm | - | 78 W/m² | - |
* Rain latest hour (hover to see other rain measurements)
** Current wind speed in m/s (hover to see current wind gust speed)